BEIDOU-2 G8

Last updated on Mon Oct 14 2024 00:02:41 GMT+0000 (Coordinated Universal Time)

1 44231U 19027A 24287.54139091 -.00000247 00000+0 00000+0 0 9990 2 44231 1.7660 74.4789 0003807 185.5409 102.0322 1.00270085 19941
UTC large
Height (km)
Speed (km/s)
/
Latitude / Longitude
Inclination (degrees)
Orbital Period (minutes)
Azimuth
Elevation
Range (km)
Doppler Factor

Next 0 passes for location: London (51.5072 / 0.1276)

Sorry there are no passes over London.